Location: Chuathbaluk
(61.5726°N, 159.2454°W)
Time: 16:38:51
(UTC+00:00)

ITAMSAT 1 - Pass Details

Date: 20 January 2021
Orbit: 784 x 796 km, 98.9° (Epoch: 05 March)

Event Time Altitude Azimuth Distance (km) Brightness Sun altitude
Rises 03:17:12 0° 148° (SSE) 3,277 10.8 -7.4°
Reaches altitude 10° 03:19:31 10° 146° (SE) 2,350 10.1 -7.7°
Maximum altitude 03:24:40 69° 65° (ENE) 848 7.6 -8.2°
Drops below altitude 10° 03:29:50 10° 343° (NNW) 2,360 10.0 -8.8°
Sets 03:32:10 0° 341° (NNW) 3,292 10.8 -9.0°
